sat.trackr.live / text

‹ back to catalog

COSMOS 2501 (702K)

NORAD 40315 · 2014-075A

PAYLOAD ACTIVE UNKNOWN

§ Identity

Operator
Country
CIS
Launch date
2014-11-30
Launch site
PLMSC
Launch vehicle
Mass (kg)
RCS (m²)
18.90

Purposes: earth_obs, nav

External: N2YO · Heavens-Above · Gunter

§ Orbital elements

Epoch: 2026-09-18T16:23:57.211584Z

Period
675.73 min
Inclination
63.6167°
Eccentricity
0.0021997
Mean motion
2.13101498 rev/d
Perigee alt
19,073.8 km
Apogee alt
19,186.0 km
Semi-major
25,508.1 km
B*
0.0000e+0
RAAN
187.1376°
Arg perigee
209.8790°
Mean anomaly
150.0114°
Rev number
9,184

§ Raw data

COSMOS 2501 (702K)1 40315U 14075A   26261.68330106 -.00000007  00000+0  00000+0 0  99902 40315  63.6167 187.1376 0021997 209.8790 150.0114  2.13101498 91843

JSON: /api/v1/satellites/40315 · /tle

For live sub-satellite position, see the globe view (requires WebGL).

§ Visibility from observer

Set your observer location to see the next 7 days of passes ≥ 10°. The values pass through the URL so the page stays shareable.

No JS? Fill the form by hand. The geolocation button needs JavaScript.